Regional Weather Roundup
Issued by NWS Goodland, KS

Home | Current Version | Previous Version | Graphics & Text | Print | Product List | Glossary On
Versions: 1 2 3 4 5 6 7 8 9 10 11 12 13 14 15 16 17 18 19 20 21 22 23 24 25 26 27 28 29 30 31 32 33 34 35 36 37 38 39 40 41 42 43 44 45 46 47 48 49 50
000
ASUS43 KGLD 010208
RWRGLD

GOODLAND FORECAST AREA HOURLY WEATHER ROUNDUP
NATIONAL WEATHER SERVICE GOODLAND KS
800 PM MDT FRI OCT 31 2014

...OFFICIAL OBSERVATIONS...

CITY           SKY/WX    TMP DP  RH WIND       PRES   REMARKS
GOODLAND KS    CLEAR     37  21  52 SE18G28   30.26F
HILL CITY KS   CLEAR     33  14  45 SE7       30.39R
IMPERIAL NEB   PTCLDY    37  18  46 SE15      30.25F
MCCOOK NEB     CLEAR     35  13  40 E8        30.33F
AKRON CO       CLEAR     40  27  59 SE20      30.15F
BURLINGTON CO  CLEAR     38  22  52 SE21G29   30.22F
LIMON CO       CLEAR     39  26  59 SE17      30.17F
$$

...UNOFFICIAL OBSERVATIONS...

CITY           SKY/WX    TMP DP  RH WIND       PRES   REMARKS
TRIBUNE KS     CLEAR     41  28  60 E14       30.28F
TRENTON NEB      N/A     35  32  89 SE12        N/A
$$



USA.gov is the U.S. government's official web portal to all federal, state and local government web resources and services.